Location: G�yn�k
(36.6721°N, 30.5542°E)
Time: 08:59:12
(UTC+00:00)

STARLINK-45 - Pass Details

Date: 07 June 2020
Orbit: 433 x 435 km, 53.0° (Epoch: 06 July)

Event Time Altitude Azimuth Distance (km) Brightness Sun altitude
Exits shadow 23:02:58 - 79° (E) 1,859 6.6 -28.5°
Enters shadow 00:00:39 -66° 229° (SW) 12,124 10.4 -23.7°
Maximum altitude 00:36:40 50° 320° (NW) 562 3.7 -19.6°
